| time (UTC) | temp C | wind direction | speed KPH | gust KPH | rain 1hr cm | rain 24hr cm | rain mn cm | humidity % | barometer mb |
| 20260506184530 | 19 | 69 | 0.0 | 11.3 | 0.00 | 0.00 | 0.00 | 60 | 1019.8 |
| 20260506183054 | 18 | 298 | 3.2 | 12.9 | 0.00 | 0.00 | 0.00 | 61 | 1019.9 |
| 20260506181530 | 19 | 232 | 4.8 | 16.1 | 0.00 | 0.00 | 0.00 | 61 | 1019.9 |
| 20260506180031 | 17 | 282 | 4.8 | 12.9 | 0.00 | 0.00 | 0.00 | 65 | 1019.9 |
| 20260506174529 | 17 | 260 | 0.0 | 12.9 | 0.00 | 0.00 | 0.00 | 65 | 1019.9 |
| 20260506173034 | 18 | 0 | 0.0 | 9.7 | 0.00 | 0.00 | 0.00 | 62 | 1019.8 |
| 20260506171528 | 18 | 0 | 1.6 | 11.3 | 0.00 | 0.00 | 0.00 | 62 | 1019.8 |
| 20260506170028 | 17 | 0 | 0.0 | 9.7 | 0.00 | 0.00 | 0.00 | 62 | 1019.8 |
| 20260506164528 | 17 | 0 | 0.0 | 0.0 | 0.00 | 0.00 | 0.00 | 64 | 1019.8 |
| 20260506163050 | 16 | 0 | 0.0 | 0.0 | 0.00 | 0.00 | 0.00 | 63 | 1019.8 |
| 20260506161527 | 16 | 0 | 0.0 | 0.0 | 0.00 | 0.00 | 0.00 | 65 | 1020.0 |
| 20260506160030 | 16 | 0 | 0.0 | 0.0 | 0.00 | 0.00 | 0.00 | 69 | 1020.0 |
| 20260506154534 | 15 | 0 | 0.0 | 0.0 | 0.00 | 0.00 | 0.00 | 75 | 1019.9 |
| 20260506153030 | 14 | 0 | 0.0 | 0.0 | 0.00 | 0.00 | 0.00 | 74 | 1020.0 |
| 20260506151530 | 12 | 0 | 0.0 | 0.0 | 0.00 | 0.00 | 0.00 | 80 | 1019.9 |
| 20260506150028 | 11 | 0 | 0.0 | 0.0 | 0.00 | 0.00 | 0.00 | 86 | 1019.9 |
| 20260506144527 | 11 | 0 | 0.0 | 0.0 | 0.00 | 0.03 | 0.00 | 89 | 1020.0 |
| 20260506143035 | 10 | 0 | 0.0 | 0.0 | 0.00 | 0.03 | 0.00 | 88 | 1019.9 |
| 20260506141535 | 9 | 0 | 0.0 | 0.0 | 0.00 | 0.03 | 0.00 | 91 | 1019.9 |
| 20260506140030 | 8 | 0 | 0.0 | 0.0 | 0.00 | 0.03 | 0.00 | 92 | 1019.9 |
| 20260506134528 | 7 | 0 | 0.0 | 0.0 | 0.00 | 0.03 | 0.00 | 91 | 1019.6 |
| 20260506133030 | 8 | 0 | 0.0 | 0.0 | 0.00 | 0.03 | 0.00 | 90 | 1019.4 |
| 20260506131528 | 8 | 0 | 0.0 | 0.0 | 0.00 | 0.03 | 0.00 | 91 | 1019.3 |
| 20260506130031 | 8 | 0 | 0.0 | 0.0 | 0.00 | 0.03 | 0.00 | 91 | 1019.2 |
| 20260506124527 | 8 | 0 | 0.0 | 0.0 | 0.00 | 0.05 | 0.00 | 91 | 1019.0 |
| 20260506123033 | 8 | 0 | 0.0 | 0.0 | 0.00 | 0.05 | 0.00 | 91 | 1018.8 |
| 20260506121533 | 8 | 0 | 0.0 | 0.0 | 0.00 | 0.05 | 0.00 | 91 | 1018.8 |
| 20260506120031 | 8 | 0 | 0.0 | 0.0 | 0.00 | 0.05 | 0.00 | 88 | 1018.7 |
| 20260506114539 | 8 | 0 | 0.0 | 0.0 | 0.00 | 0.10 | 0.00 | 90 | 1018.6 |
| 20260506113030 | 8 | 0 | 0.0 | 0.0 | 0.00 | 0.10 | 0.00 | 90 | 1018.7 |
| 20260506111535 | 8 | 0 | 0.0 | 0.0 | 0.00 | 0.10 | 0.00 | 90 | 1018.7 |
| 20260506110030 | 8 | 0 | 0.0 | 0.0 | 0.00 | 0.10 | 0.00 | 88 | 1018.6 |
| 20260506104532 | 9 | 0 | 0.0 | 0.0 | 0.00 | 0.13 | 0.00 | 87 | 1018.6 |
| 20260506103030 | 9 | 0 | 0.0 | 0.0 | 0.00 | 0.13 | 0.00 | 88 | 1018.2 |
| 20260506101530 | 9 | 0 | 0.0 | 0.0 | 0.00 | 0.13 | 0.00 | 90 | 1018.2 |
| 20260506100028 | 8 | 0 | 0.0 | 0.0 | 0.00 | 0.13 | 0.00 | 89 | 1018.2 |
| 20260506094530 | 8 | 0 | 0.0 | 0.0 | 0.00 | 0.13 | 0.00 | 91 | 1018.1 |
| 20260506093032 | 8 | 0 | 0.0 | 0.0 | 0.00 | 0.13 | 0.00 | 88 | 1018.2 |
| 20260506091530 | 8 | 0 | 0.0 | 0.0 | 0.00 | 0.13 | 0.00 | 90 | 1018.2 |
| 20260506090030 | 8 | 0 | 0.0 | 0.0 | 0.00 | 0.13 | 0.00 | 89 | 1018.3 |
| 20260506084530 | 9 | 0 | 0.0 | 0.0 | 0.00 | 0.13 | 0.00 | 89 | 1018.4 |
| 20260506083029 | 8 | 0 | 0.0 | 0.0 | 0.00 | 0.13 | 0.00 | 90 | 1018.5 |
| 20260506081529 | 8 | 0 | 0.0 | 0.0 | 0.00 | 0.13 | 0.00 | 89 | 1018.4 |
| 20260506073030 | 9 | 0 | 0.0 | 0.0 | 0.00 | 0.13 | 0.00 | 89 | 1018.0 |
| 20260506071533 | 9 | 0 | 0.0 | 0.0 | 0.00 | 0.13 | 0.00 | 88 | 1017.9 |
| 20260506061535 | 10 | 0 | 0.0 | 0.0 | 0.00 | 0.13 | 0.13 | 87 | 1017.4 |
| 20260506044538 | 10 | 0 | 0.0 | 0.0 | 0.00 | 0.13 | 0.13 | 86 | 1016.7 |
| 20260506043028 | 10 | 0 | 0.0 | 0.0 | 0.00 | 0.13 | 0.13 | 85 | 1016.6 |
| 20260506041528 | 10 | 0 | 0.0 | 0.0 | 0.00 | 0.13 | 0.13 | 84 | 1016.5 |
| 20260506040051 | 10 | 0 | 0.0 | 0.0 | 0.00 | 0.13 | 0.13 | 83 | 1016.2 |
| 20260506034534 | 10 | 0 | 0.0 | 0.0 | 0.00 | 0.13 | 0.13 | 84 | 1016.1 |
| 20260506033028 | 10 | 0 | 0.0 | 0.0 | 0.00 | 0.13 | 0.13 | 83 | 1015.9 |
| 20260506031542 | 11 | 0 | 0.0 | 0.0 | 0.00 | 0.13 | 0.13 | 82 | 1015.7 |
| 20260506030029 | 11 | 0 | 0.0 | 0.0 | 0.00 | 0.13 | 0.13 | 81 | 1015.6 |
| 20260506024554 | 11 | 0 | 0.0 | 0.0 | 0.00 | 0.13 | 0.13 | 80 | 1015.4 |
| 20260506023030 | 12 | 0 | 0.0 | 0.0 | 0.00 | 0.13 | 0.13 | 78 | 1015.2 |
| 20260506021528 | 13 | 0 | 0.0 | 0.0 | 0.00 | 0.13 | 0.13 | 74 | 1015.2 |
| 20260506020030 | 13 | 0 | 0.0 | 0.0 | 0.00 | 0.13 | 0.13 | 72 | 1015.0 |
| 20260506014531 | 13 | 0 | 0.0 | 0.0 | 0.00 | 0.13 | 0.13 | 72 | 1015.0 |
| 20260506013030 | 14 | 0 | 0.0 | 3.2 | 0.00 | 0.13 | 0.13 | 70 | 1014.9 |
| 20260506011529 | 14 | 0 | 1.6 | 11.3 | 0.00 | 0.13 | 0.13 | 68 | 1015.0 |
| 20260506010031 | 15 | 0 | 0.0 | 6.4 | 0.00 | 0.13 | 0.13 | 66 | 1015.2 |
| 20260506004530 | 15 | 0 | 0.0 | 0.0 | 0.00 | 0.13 | 0.13 | 67 | 1015.0 |
| 20260506003028 | 15 | 0 | 0.0 | 0.0 | 0.00 | 0.13 | 0.13 | 66 | 1015.0 |
| 20260506001528 | 15 | 0 | 0.0 | 3.2 | 0.00 | 0.13 | 0.13 | 66 | 1015.1 |
| 20260506000029 | 15 | 0 | 0.0 | 0.0 | 0.00 | 0.13 | 0.13 | 69 | 1015.1 |
| 20260505234527 | 15 | 0 | 0.0 | 0.0 | 0.00 | 0.13 | 0.13 | 69 | 1015.1 |
| 20260505233031 | 15 | 0 | 0.0 | 1.6 | 0.00 | 0.13 | 0.13 | 72 | 1015.1 |
| 20260505231544 | 15 | 0 | 0.0 | 0.0 | 0.00 | 0.13 | 0.13 | 67 | 1015.1 |
| 20260505230032 | 15 | 0 | 0.0 | 0.0 | 0.00 | 0.13 | 0.13 | 66 | 1015.1 |
| 20260505224530 | 15 | 0 | 0.0 | 4.8 | 0.00 | 0.13 | 0.13 | 65 | 1015.2 |
| 20260505223030 | 15 | 0 | 0.0 | 9.7 | 0.00 | 0.13 | 0.13 | 67 | 1015.2 |
| 20260505221528 | 15 | 312 | 0.0 | 11.3 | 0.00 | 0.13 | 0.13 | 66 | 1015.2 |
| 20260505220038 | 15 | 0 | 0.0 | 1.6 | 0.00 | 0.13 | 0.13 | 70 | 1015.0 |
| 20260505214535 | 14 | 0 | 0.0 | 0.0 | 0.00 | 0.13 | 0.13 | 68 | 1015.2 |
| 20260505213027 | 14 | 0 | 0.0 | 0.0 | 0.00 | 0.13 | 0.13 | 73 | 1015.3 |
| 20260505211528 | 14 | 0 | 0.0 | 0.0 | 0.00 | 0.13 | 0.13 | 76 | 1015.3 |
| 20260505210029 | 14 | 0 | 0.0 | 0.0 | 0.00 | 0.13 | 0.13 | 75 | 1015.2 |
| 20260505204534 | 13 | 0 | 0.0 | 0.0 | 0.00 | 0.13 | 0.13 | 77 | 1015.1 |
| 20260505203032 | 13 | 0 | 0.0 | 0.0 | 0.00 | 0.13 | 0.13 | 79 | 1015.0 |
| 20260505201528 | 13 | 0 | 0.0 | 0.0 | 0.00 | 0.13 | 0.13 | 82 | 1015.0 |
| 20260505200039 | 13 | 0 | 0.0 | 6.4 | 0.00 | 0.13 | 0.13 | 80 | 1015.0 |
| 20260505194529 | 13 | 0 | 0.0 | 9.7 | 0.00 | 0.13 | 0.13 | 80 | 1015.1 |
| 20260505193029 | 13 | 0 | 1.6 | 9.7 | 0.00 | 0.13 | 0.13 | 82 | 1015.1 |
| 20260505191530 | 13 | 0 | 0.0 | 11.3 | 0.00 | 0.13 | 0.13 | 82 | 1015.0 |
| 20260505190035 | 12 | 0 | 0.0 | 14.5 | 0.00 | 0.13 | 0.13 | 85 | 1015.0 |